Regional Weather Roundup
Issued by NWS Goodland, KS

Home | Current Version | Previous Version | Graphics & Text | Print | Product List | Glossary On
Versions: 1 2 3 4 5 6 7 8 9 10 11 12 13 14 15 16 17 18 19 20 21 22 23 24 25 26 27 28 29 30 31 32 33 34 35 36 37 38 39 40 41 42 43 44 45 46 47 48 49 50
000
ASUS43 KGLD 282308
RWRGLD

GOODLAND FORECAST AREA HOURLY WEATHER ROUNDUP
NATIONAL WEATHER SERVICE GOODLAND KS
500 PM MDT TUE JUL 28 2015

...OFFICIAL OBSERVATIONS...

CITY           SKY/WX    TMP DP  RH WIND       PRES   REMARKS
GOODLAND KS    SUNNY     84  42  22 NE13G21   30.08S
HILL CITY KS   SUNNY     86  54  33 N18G24    29.99S
IMPERIAL NEB   SUNNY     84  41  21 N13       30.08R
MCCOOK NEB     SUNNY     87  48  25 NE13      30.03R
AKRON CO       SUNNY     82  34  17 E8        30.14S
BURLINGTON CO  SUNNY     82  42  24 NE14      30.12S
LIMON CO       SUNNY     80  42  25 E12       30.17S
$$

...UNOFFICIAL OBSERVATIONS...

CITY           SKY/WX    TMP DP  RH WIND       PRES   REMARKS
COLBY KS       SUNNY     86  54  32 NE14      30.06S
NORTON KS      SUNNY     81  48  32 N10       30.00S
SHARON SPRINGS   N/A     85  53  32 NE15G22     N/A
KIT CARSON CO    N/A     83  47  28 MISG        N/A
$$


USA.gov is the U.S. government's official web portal to all federal, state and local government web resources and services.